Location: Newark
(42.8481°N, 0.4872°E)
Time: 12:40:50
(UTC+00:00)

A-11 Canister half - Pass Details

Date: 28 October 2020
Orbit: 1525 x 1684 km, 47.3° (Epoch: 01 December)

Event Time Altitude Azimuth Distance (km) Brightness Sun altitude
Rises 14:11:46 0° 230° (SW) 4,803 13.0 24.1°
Reaches altitude 10° 14:14:55 10° 228° (SW) 3,797 13.0 23.7°
Maximum altitude 14:24:25 69° 147° (SSE) 1,649 9.7 22.5°
Drops below altitude 10° 14:33:40 10° 67° (ENE) 3,707 10.5 21.4°
Sets 14:36:42 0° 65° (ENE) 4,684 11.0 21.0°
